Location: Monteux
(44.0348°N, 4.9972°E)
Time: 14:41:23
(UTC+00:00)

Cosmos 2369 Rocket - Pass Details

Date: 30 November 2020
Orbit: 829 x 852 km, 71.0° (Epoch: 27 January)

Event Time Altitude Azimuth Distance (km) Brightness Sun altitude
Rises 18:06:44 0° 332° (NNW) 3,421 5.6 -21.6°
Reaches altitude 10° 18:09:12 10° 330° (NNW) 2,478 4.9 -22.0°
Maximum altitude 18:14:50 67° 249° (WSW) 914 2.5 -23.0°
Drops below altitude 10° 18:20:24 10° 168° (SSE) 2,447 4.6 -24.0°
Sets 18:22:50 0° 165° (SSE) 3,374 5.3 -24.4°
